Regional Weather Roundup
Issued by NWS Charleston, WV

Home | Current Version | Previous Version | Graphics & Text | Print | Product List | Glossary On
Versions: 1 2 3 4 5 6 7 8 9 10 11 12 13 14 15 16 17 18 19 20 21 22 23 24 25 26 27 28 29 30 31 32 33 34 35 36 37 38 39 40 41 42 43 44 45 46 47 48 49
000
ASUS41 KRLX 191710
RWRRLX
West Virginia Regional Weather Roundup
National Weather Service Charleston WV
Issued by National Weather Service Pittsburgh PA
1200 PM EST SUN NOV 19 2017

Note: "fair" indicates few or no clouds below 12,000 feet with no
significant weather and/or obstructions to visibility.

WVZ003-191800-
Northern Panhandle of West Virginia

CITY           SKY/WX    TMP DP  RH WIND       PRES   REMARKS
WHEELING       CLOUDY    38  26  62 W15G21    29.84S
$$

WVZ009-191800-
Northwest West Virginia

CITY           SKY/WX    TMP DP  RH WIND       PRES   REMARKS
PARKERSBURG    CLOUDY    40  32  73 W13       29.94S
$$

WVZ006-191800-
Western West Virginia

CITY           SKY/WX    TMP DP  RH WIND       PRES   REMARKS
HUNTINGTON     CLOUDY    42  28  57 W13       29.98S
$$

WVZ015-191800-
West Central West Virginia

CITY           SKY/WX    TMP DP  RH WIND       PRES   REMARKS
CHARLESTON     CLOUDY    41  27  57 W8G21     29.96S
$$

WVZ031-191800-
North Central West Virginia

CITY           SKY/WX    TMP DP  RH WIND       PRES   REMARKS
CLARKSBURG     CLOUDY    39  26  59 W9G22     29.88R
MORGANTOWN     LGT SNOW  37  31  78 W5        29.84F FOG
$$

WVZ035-042-191800-
South Central West Virginia

CITY           SKY/WX    TMP DP  RH WIND       PRES   REMARKS
BECKLEY        CLOUDY    33  28  81 W15       29.90S WCI  23
BLUEFIELD      CLOUDY    31  26  82 NW14G22   29.90S WCI  21
$$

WVZ045-191800-
Greenbrier Valley of West Virginia

CITY           SKY/WX    TMP DP  RH WIND       PRES   REMARKS
LEWISBURG      CLOUDY    38  28  69 W13G20    29.87F
$$

WVZ047-191800-
Northern Mountains of West Virginia

CITY           SKY/WX    TMP DP  RH WIND       PRES   REMARKS
ELKINS         CLOUDY    36  32  85 W10G16    29.85S
$$

WVZ052-191800-
Eastern Panhandle of West Virginia

CITY           SKY/WX    TMP DP  RH WIND       PRES   REMARKS
MARTINSBURG    CLOUDY    46  26  45 NW21G31   29.75S
PETERSBURG     CLOUDY    41  27  57 NW12G18   29.83R
$$




USA.gov is the U.S. government's official web portal to all federal, state and local government web resources and services.